timestamp,surface_pressure_avg,surface_temp_avg,battery_voltage,lat,long
2019-04-14 00:00:00+00:00,214.7481,0.35,12.89,47.84626,-54.09684
2019-04-14 00:10:00+00:00,209.9915,0.38,12.81,47.84626,-54.09684
2019-04-14 00:20:00+00:00,217.7097,0.39,12.89,47.84626,-54.09684
2019-04-14 00:30:00+00:00,218.2098,0.4,12.89,47.84626,-54.09684
2019-04-14 00:40:00+00:00,210.9498,0.39,12.97,47.84626,-54.09684
2019-04-14 00:50:00+00:00,216.5398,0.38,12.97,47.84626,-54.09684
2019-04-14 01:00:00+00:00,224.9915,0.37,12.89,47.84626,-54.09684
2019-04-14 01:10:00+00:00,214.7365,0.35,12.81,47.84626,-54.09684
2019-04-14 01:20:00+00:00,210.3781,0.33,12.89,47.84626,-54.09684
2019-04-14 01:30:00+00:00,228.0281,0.31,12.89,47.84626,-54.09684
2019-04-14 01:40:00+00:00,235.5515,0.33,12.89,47.84626,-54.09684
2019-04-14 01:50:00+00:00,228.7598,0.32,12.89,47.84626,-54.09684
2019-04-14 02:00:00+00:00,225.0631,0.31,12.81,47.84626,-54.09684
2019-04-14 02:10:00+00:00,237.7048,0.32,12.81,47.84626,-54.09684
2019-04-14 02:20:00+00:00,243.3014,0.33,12.89,47.84626,-54.09684
2019-04-14 02:30:00+00:00,240.5547,0.33,12.89,47.84626,-54.09684
2019-04-14 02:40:00+00:00,243.0781,0.34,12.89,47.84626,-54.09684
2019-04-14 02:50:00+00:00,253.7498,0.34,12.89,47.84626,-54.09684
2019-04-14 03:00:00+00:00,256.3864,0.35,12.81,47.84626,-54.09684
2019-04-14 03:10:00+00:00,256.8547,0.35,12.73,47.84626,-54.09684
2019-04-14 03:20:00+00:00,265.7631,0.36,12.81,47.84626,-54.09684
2019-04-14 03:30:00+00:00,276.9847,0.36,12.81,47.84626,-54.09684
2019-04-14 03:40:00+00:00,281.7448,0.35,12.89,47.84626,-54.09684
2019-04-14 03:50:00+00:00,282.228,0.37,12.89,47.84626,-54.09684
2019-04-14 04:00:00+00:00,283.9531,0.39,12.81,47.84626,-54.09684
2019-04-14 04:10:00+00:00,291.7014,0.4,12.73,47.84626,-54.09684
2019-04-14 04:20:00+00:00,294.488,0.4,12.81,47.84626,-54.09684
2019-04-14 04:30:00+00:00,291.673,0.4,12.81,47.84626,-54.09684
2019-04-14 04:40:00+00:00,292.4963,0.4,12.81,47.84626,-54.09684
2019-04-14 04:50:00+00:00,297.8797,0.4,12.81,47.84626,-54.09684
2019-04-14 05:00:00+00:00,301.5764,0.4,12.73,47.84626,-54.09684
2019-04-14 05:10:00+00:00,303.1246,0.4,12.73,47.84626,-54.09684
2019-04-14 05:20:00+00:00,310.6629,0.46,12.73,47.84626,-54.09684
2019-04-14 05:30:00+00:00,318.6464,0.48,12.81,47.84626,-54.09684
2019-04-14 05:40:00+00:00,329.2614,0.49,12.81,47.84626,-54.09684
2019-04-14 05:50:00+00:00,334.1647,0.49,12.81,47.84626,-54.09684
2019-04-14 06:00:00+00:00,334.7764,0.47,12.73,47.84626,-54.09684
2019-04-14 06:10:00+00:00,330.2047,0.5,12.65,47.84626,-54.09684
2019-04-14 06:20:00+00:00,336.0164,0.5,12.73,47.84626,-54.09684
2019-04-14 06:30:00+00:00,340.983,0.5,12.73,47.84626,-54.09684
2019-04-14 06:40:00+00:00,342.688,0.5,12.73,47.84626,-54.09684
2019-04-14 06:50:00+00:00,340.868,0.5,12.81,47.84626,-54.09684
2019-04-14 07:00:00+00:00,347.7646,0.53,12.73,47.84626,-54.09684
2019-04-14 07:10:00+00:00,352.5114,0.54,12.65,47.84626,-54.09684
2019-04-14 07:20:00+00:00,348.1497,0.54,12.73,47.84626,-54.09684
2019-04-14 07:30:00+00:00,343.6212,0.52,12.73,47.84626,-54.09684
2019-04-14 07:40:00+00:00,344.6647,0.5,12.73,47.84626,-54.09684
2019-04-14 07:50:00+00:00,346.563,0.5,12.73,47.84626,-54.09684
2019-04-14 08:00:00+00:00,339.483,0.5,12.73,47.84626,-54.09684
2019-04-14 08:10:00+00:00,330.588,0.54,12.65,47.84626,-54.09684
2019-04-14 08:20:00+00:00,329.0562,0.55,12.73,47.84626,-54.09684
2019-04-14 08:30:00+00:00,324.9446,0.58,12.73,47.84626,-54.09684
2019-04-14 08:40:00+00:00,320.5247,0.58,12.73,47.84626,-54.09684
2019-04-14 08:50:00+00:00,310.5496,0.51,12.73,47.84626,-54.09684
2019-04-14 09:00:00+00:00,304.4347,0.53,12.65,47.84626,-54.09684
2019-04-14 09:10:00+00:00,304.7047,0.54,12.65,47.84626,-54.09684
2019-04-14 09:20:00+00:00,299.2313,0.56,12.73,47.84626,-54.09684
2019-04-14 09:30:00+00:00,288.5714,0.57,12.73,47.84626,-54.09684
2019-04-14 09:40:00+00:00,281.6531,0.55,12.73,47.84626,-54.09684
2019-04-14 09:50:00+00:00,278.4581,0.55,12.73,47.84626,-54.09684
2019-04-14 10:00:00+00:00,269.8031,0.57,12.65,47.84626,-54.09684
2019-04-14 10:10:00+00:00,262.9281,0.58,12.65,47.84626,-54.09684
2019-04-14 10:20:00+00:00,259.7464,0.58,12.73,47.84626,-54.09684
2019-04-14 10:30:00+00:00,260.4264,0.59,12.73,47.84626,-54.09684
2019-04-14 10:40:00+00:00,256.1715,0.59,12.73,47.84626,-54.09684
2019-04-14 10:50:00+00:00,247.8247,0.59,12.81,47.84626,-54.09684
2019-04-14 11:00:00+00:00,239.7714,0.59,12.73,47.84626,-54.09684
2019-04-14 11:10:00+00:00,239.2581,0.59,12.65,47.84626,-54.09684
2019-04-14 11:20:00+00:00,240.5814,0.6,12.73,47.84626,-54.09684
2019-04-14 11:30:00+00:00,237.4381,0.6,12.73,47.84626,-54.09684
2019-04-14 11:40:00+00:00,237.8331,0.6,12.81,47.84626,-54.09684
2019-04-14 11:50:00+00:00,241.3615,0.6,12.89,47.84626,-54.09684
2019-04-14 12:00:00+00:00,243.0848,0.6,12.97,47.84626,-54.09684
2019-04-14 12:10:00+00:00,242.1064,0.6,12.97,47.84626,-54.09684
2019-04-14 12:20:00+00:00,235.5431,0.6,13.21,47.84626,-54.09684
2019-04-14 12:30:00+00:00,233.0631,0.6,13.29,47.84626,-54.09684
2019-04-14 12:40:00+00:00,237.4814,0.63,13.44,47.84626,-54.09684
2019-04-14 12:50:00+00:00,233.2298,0.66,13.53,47.84626,-54.09684
2019-04-14 13:00:00+00:00,228.3898,0.68,13.6,47.84626,-54.09684
2019-04-14 13:10:00+00:00,231.5047,0.69,14.32,47.84626,-54.09684
2019-04-14 13:20:00+00:00,235.2864,0.7,14.16,47.84626,-54.09684
2019-04-14 13:30:00+00:00,229.5164,0.7,14.24,47.84626,-54.09684
2019-04-14 13:40:00+00:00,227.9364,0.7,16.47,47.84626,-54.09684
2019-04-14 13:50:00+00:00,233.4331,0.7,14.88,47.84626,-54.09684
2019-04-14 14:00:00+00:00,231.1614,0.7,14.56,47.84626,-54.09684
2019-04-14 14:10:00+00:00,226.2547,0.7,14.4,47.84626,-54.09684
2019-04-14 14:20:00+00:00,229.8415,0.7,14.4,47.84626,-54.09684
2019-04-14 14:30:00+00:00,233.7214,0.7,14.96,47.84626,-54.09684
2019-04-14 14:40:00+00:00,237.3214,0.7,14.64,47.84626,-54.09684
2019-04-14 14:50:00+00:00,235.3647,0.7,14.72,47.84626,-54.09684
2019-04-14 15:00:00+00:00,237.1548,0.7,14.56,47.84626,-54.09684
2019-04-14 15:10:00+00:00,241.6514,0.7,14.48,47.84626,-54.09684
2019-04-14 15:20:00+00:00,242.5148,0.73,14.56,47.84626,-54.09684
2019-04-14 15:30:00+00:00,248.3581,0.78,14.64,47.84626,-54.09684
2019-04-14 15:40:00+00:00,256.8381,0.8,14.8,47.84626,-54.09684
2019-04-14 15:50:00+00:00,255.843,0.8,14.64,47.84626,-54.09684
2019-04-14 16:00:00+00:00,258.3547,0.9,14.56,47.84626,-54.09684
2019-04-14 16:10:00+00:00,269.3848,0.9,14.56,47.84626,-54.09684
2019-04-14 16:20:00+00:00,275.1531,0.9,14.88,47.84626,-54.09684
2019-04-14 16:30:00+00:00,272.2097,1.06,14.56,47.84626,-54.09684
2019-04-14 16:40:00+00:00,280.038,1.1,14.8,47.84626,-54.09684
2019-04-14 16:50:00+00:00,286.248,0.9,14.56,47.84626,-54.09684
2019-04-14 17:00:00+00:00,289.4113,0.98,14.48,47.84626,-54.09684
2019-04-14 17:10:00+00:00,291.723,1.06,14.24,47.84626,-54.09684
2019-04-14 17:20:00+00:00,300.363,1.1,14.24,47.84626,-54.09684
2019-04-14 17:30:00+00:00,297.3947,1.1,14.24,47.84626,-54.09684
2019-04-14 17:40:00+00:00,297.1047,1.19,14.24,47.84626,-54.09684
2019-04-14 17:50:00+00:00,303.6796,1.14,14.24,47.84626,-54.09684
2019-04-14 18:00:00+00:00,315.0047,1.1,14.24,47.84626,-54.09684
2019-04-14 18:10:00+00:00,315.5663,1.0,14.16,47.84626,-54.09684
2019-04-14 18:20:00+00:00,313.4564,0.98,14.24,47.84626,-54.09684
2019-04-14 18:30:00+00:00,319.7114,0.9,14.24,47.84626,-54.09684
2019-04-14 18:40:00+00:00,330.4913,0.8,14.24,47.84626,-54.09684
2019-04-14 18:50:00+00:00,326.5063,0.8,14.24,47.84626,-54.09684
2019-04-14 19:00:00+00:00,326.9547,0.84,14.24,47.84626,-54.09684
2019-04-14 19:10:00+00:00,328.2596,0.84,14.16,47.84626,-54.09684
2019-04-14 19:20:00+00:00,328.8046,0.86,14.24,47.84626,-54.09684
2019-04-14 19:30:00+00:00,327.368,0.89,14.24,47.84626,-54.09684
2019-04-14 19:40:00+00:00,326.858,0.9,14.24,47.84626,-54.09684
2019-04-14 19:50:00+00:00,329.178,0.9,14.24,47.84626,-54.09684
2019-04-14 20:00:00+00:00,326.0613,0.9,14.16,47.84626,-54.09684
2019-04-14 20:10:00+00:00,322.358,0.9,14.08,47.84626,-54.09684
2019-04-14 20:20:00+00:00,319.023,0.9,14.08,47.84626,-54.09684
2019-04-14 20:30:00+00:00,315.6214,0.94,14.08,47.84626,-54.09684
2019-04-14 20:40:00+00:00,310.9247,1.0,14.08,47.84626,-54.09684
2019-04-14 20:50:00+00:00,299.9514,1.07,14.08,47.84626,-54.09684
2019-04-14 21:00:00+00:00,296.688,1.1,14.0,47.84626,-54.09684
2019-04-14 21:10:00+00:00,296.6547,1.1,13.92,47.84626,-54.09684
2019-04-14 21:20:00+00:00,293.938,1.1,13.92,47.84626,-54.09684
2019-04-14 21:30:00+00:00,289.3914,1.2,13.84,47.84626,-54.09684
2019-04-14 21:40:00+00:00,288.8914,1.2,13.84,47.84626,-54.09684
2019-04-14 21:50:00+00:00,288.478,1.18,13.84,47.84626,-54.09684
2019-04-14 22:00:00+00:00,278.8864,1.09,13.68,47.84626,-54.09684
2019-04-14 22:10:00+00:00,275.7964,1.17,13.53,47.84626,-54.09684
2019-04-14 22:20:00+00:00,271.1547,1.19,13.53,47.84626,-54.09684
2019-04-14 22:30:00+00:00,264.7564,1.1,13.44,47.84626,-54.09684
2019-04-14 22:40:00+00:00,257.2981,1.1,13.44,47.84626,-54.09684
2019-04-14 22:50:00+00:00,262.3231,1.0,13.37,47.84626,-54.09684
2019-04-14 23:00:00+00:00,261.3031,1.0,13.29,47.84626,-54.09684
2019-04-14 23:10:00+00:00,255.1481,0.99,13.13,47.84626,-54.09684
2019-04-14 23:20:00+00:00,249.6764,0.96,13.13,47.84626,-54.09684
2019-04-14 23:30:00+00:00,251.3664,0.9,13.13,47.84626,-54.09684
2019-04-14 23:40:00+00:00,246.4481,0.91,13.13,47.84626,-54.09684
2019-04-14 23:50:00+00:00,240.9214,1.0,13.13,47.84626,-54.09684
